CAPE
12 10 8 8 6 3 3 5 5 3 2 1 0 1 2 2 3 2 2 1 2 3 4 2 2 0 0 0 0 0 0 89 18 0 0 0 0 0 0 0 0 0 0 12 53 205 134
9 8 7 5 5 2 7 8 3 4 3 0 0 0 1 2 1 3 3 2 1 3 2 2 1 0 0 0 0 0 0 0 0 0 0 0 0 0 0 0 0 0 0 0 11 102 181
6 7 8 7 4 2 2 7 5 4 3 3 0 1 2 1 2 4 4 2 2 2 1 1 0 0 0 0 0 0 0 0 0 0 0 0 0 0 0 0 0 0 0 0 0 3 101
3 3 7 6 5 3 5 7 4 3 0 5 2 1 0 1 1 3 4 3 0 0 0 0 0 0 0 0 0 0 0 0 0 0 0 0 0 0 0 0 0 0 0 0 0 0 45
3 2 3 5 4 5 3 5 5 4 0 5 2 1 1 2 5 6 3 1 0 0 0 0 0 0 0 0 0 0 0 0 0 0 0 0 0 0 0 0 0 0 0 0 0 12 56
0 0 1 1 2 4 2 2 1 2 1 2 3 0 0 2 3 4 2 0 0 0 0 0 0 0 0 0 0 0 0 0 0 0 0 0 0 0 0 0 0 0 0 0 0 0 83
0 0 0 0 0 2 0 1 2 3 2 0 4 2 0 2 3 4 0 0 0 0 0 0 0 0 0 0 0 0 0 0 0 0 0 0 0 0 0 0 0 0 0 0 0 0 0
0 0 0 0 1 0 3 2 1 0 2 1 3 3 0 3 1 0 0 0 0 0 0 0 0 0 0 0 0 0 0 0 0 0 0 0 0 0 0 0 0 0 0 0 0 0 0
0 0 0 0 0 0 1 1 1 1 1 2 1 2 0 1 0 0 0 0 0 0 0 0 0 0 0 0 0 0 0 0 0 0 0 0 0 0 0 0 0 0 0 0 0 0 53
0 0 0 0 0 0 0 0 0 0 1 0 2 0 1 2 0 0 0 0 0 0 0 0 0 0 0 0 0 0 0 0 0 0 0 0 0 0 0 0 0 0 0 0 0 0 0
0 0 0 0 1 1 1 0 0 0 0 0 1 0 2 3 0 0 0 0 0 0 0 0 0 0 0 0 0 0 0 0 0 0 0 0 0 0 0 0 0 0 0 0 0 0 0
0 0 0 0 1 1 1 0 0 0 0 0 0 0 2 0 0 0 0 0 0 0 0 0 0 0 0 0 0 0 0 0 0 0 0 0 0 0 0 0 0 0 0 0 0 0 0
0 0 0 1 1 1 1 0 0 0 0 0 0 0 2 0 0 0 0 0 0 0 0 0 0 0 0 0 0 0 0 0 0 0 0 0 0 0 0 0 0 0 0 0 0 0 0
0 0 0 1 1 0 0 0 0 0 0 0 0 0 0 0 0 0 0 0 0 0 0 0 0 0 0 0 0 0 0 0 0 0 0 0 0 0 0 0 0 0 0 0 0 0 0
0 0 0 0 0 0 0 0 0 0 0 0 0 0 0 0 0 0 0 0 0 0 0 0 0 0 0 0 0 0 0 0 0 0 0 0 0 0 0 0 0 0 0 0 0 0 0
0 1 0 0 0 0 0 0 0 0 0 0 0 0 0 0 0 0 0 0 0 0 0 0 0 0 0 0 0 0 0 0 0 0 0 0 0 0 0 0 0 0 0 0 0 0 0
1 1 0 0 0 0 0 0 0 0 0 0 0 0 0 0 0 0 0 0 0 0 0 0 0 0 0 0 0 0 0 0 0 0 0 0 0 0 0 0 0 0 0 0 0 0 0
1 1 1 0 0 0 0 0 0 0 0 0 0 0 0 0 0 0 0 0 0 0 0 0 0 0 0 0 0 0 0 0 0 0 0 0 0 0 0 0 0 0 0 0 0 0 0
1 1 1 1 0 0 0 0 0 0 0 0 0 0 0 0 0 0 0 0 0 0 0 0 0 0 0 0 0 0 0 0 0 0 0 0 0 0 0 0 0 0 0 0 0 0 0
1 1 1 1 0 0 0 0 0 0 0 0 0 0 0 0 0 0 0 0 0 0 0 0 0 0 0 0 0 0 0 0 0 0 0 0 0 0 0 0 0 0 0 0 0 0 0
1 1 1 1 1 0 0 0 0 0 0 0 0 0 0 0 0 0 0 0 0 0 0 0 0 0 0 0 0 0 0 0 0 0 0 0 0 0 0 0 0 0 0 0 0 0 0
2 2 1 2 1 1 0 0 0 0 0 0 0 0 0 0 0 0 0 0 0 0 0 0 0 0 0 0 0 0 0 0 0 0 0 0 0 0 0 0 0 0 0 0 42 206 140
2 2 3 3 2 1 1 0 0 0 0 0 0 0 0 0 0 0 0 0 0 0 0 0 0 0 0 0 0 0 0 0 0 0 0 0 0 0 0 0 0 0 80 222 255 146 78
2 2 3 2 3 3 3 1 0 0 0 0 0 0 0 0 0 0 0 0 0 0 0 0 0 0 0 0 0 0 0 0 0 0 0 0 0 0 0 0 0 202 377 453 512 373 306
2 2 3 3 4 3 3 4 0 0 0 0 0 0 0 0 0 0 0 0 0 0 0 0 0 0 0 0 0 0 0 0 0 0 0 0 0 0 0 0 0 0 145 184 211 282 365
3 3 3 3 4 5 4 6 0 0 0 0 0 0 0 0 0 0 0 0 0 0 0 0 0 0 0 0 0 0 0 0 0 0 0 0 0 0 0 0 0 25 137 135 148 347 145
3 3 3 4 4 5 6 6 0 0 0 0 0 0 0 0 0 0 0 0 0 0 0 0 0 0 0 0 0 0 0 0 0 0 0 0 0 0 0 0 0 63 84 259 431 313 99
2 2 3 4 5 5 6 4 1 0 0 0 0 0 0 0 0 0 0 0 0 0 0 0 0 0 0 0 0 0 0 0 0 0 0 0 0 0 0 0 0 31 245 463 41 46 74
3 3 4 5 6 5 8 3 8 3 1 0 0 0 0 0 0 0 0 0 0 0 0 0 0 0 0 0 0 0 0 0 0 0 3 2 0 28 0 12 19 6 3 1 2 5 7
CIN
-1 -1 0 0 0 0 0 0 0 0 0 0 0 0 0 0 0 0 0 0 0 0 0 0 0 0 0 0 0 0 0 -259 -246 0 0 0 0 0 0 0 0 -14 0 -77 -77 -74 -82
0 -1 -1 0 -1 0 0 0 0 0 0 0 0 0 0 0 0 0 0 0 0 0 0 0 0 0 0 0 0 0 0 0 0 0 0 0 0 0 0 0 0 0 0 0 -96 -75 -58
0 -1 0 -2 -1 0 0 0 0 0 0 0 0 0 0 0 0 0 0 0 0 0 0 0 0 0 0 0 0 0 0 0 0 0 0 0 0 0 0 0 0 0 0 0 0 -81 -65
0 -4 -1 -2 -1 -1 0 0 0 0 0 0 0 0 0 0 0 0 0 0 0 0 0 0 0 0 0 0 0 0 0 0 0 0 0 0 0 0 0 0 0 0 0 0 0 -13 -94
0 0 0 -2 -2 -1 -1 0 0 0 0 0 0 0 0 0 0 0 0 0 0 0 0 0 0 0 0 0 0 0 0 0 0 0 0 0 0 0 0 0 0 0 0 0 0 -83 -85
0 0 0 0 -2 -3 -2 -1 0 0 0 0 0 0 0 0 0 0 0 0 0 0 0 0 0 0 0 0 0 0 0 0 0 0 0 0 0 0 0 0 0 0 0 0 0 0 -79
0 0 0 0 0 0 -2 -1 0 0 0 0 0 0 0 0 0 0 0 0 0 0 0 0 0 0 0 0 0 0 0 0 0 0 0 0 0 0 0 0 0 0 0 0 0 0 0
0 0 0 0 0 0 0 -1 0 0 0 0 0 0 0 0 0 0 0 0 0 0 0 0 0 0 0 0 0 0 0 0 0 0 0 0 0 0 0 0 0 0 0 0 0 0 0
0 0 0 0 0 0 0 0 -1 0 0 0 0 0 0 0 0 0 0 0 0 0 0 0 0 0 0 0 0 0 0 0 0 0 0 0 0 0 0 0 0 0 0 0 0 0 -78
0 0 0 0 0 0 0 0 0 -1 -1 0 0 0 0 0 0 0 0 0 0 0 0 0 0 0 0 0 0 0 0 0 0 0 0 0 0 0 0 0 0 0 0 0 0 0 0
0 0 0 0 0 0 0 0 0 0 -1 0 0 0 0 0 0 0 0 0 0 0 0 0 0 0 0 0 0 0 0 0 0 0 0 0 0 0 0 0 0 0 0 0 0 0 0
0 0 0 0 0 0 0 0 0 0 0 -1 0 0 0 0 0 0 0 0 0 0 0 0 0 0 0 0 0 0 0 0 0 0 0 0 0 0 0 0 0 0 0 0 0 0 0
0 0 0 0 0 0 0 0 0 0 0 0 0 0 0 0 0 0 0 0 0 0 0 0 0 0 0 0 0 0 0 0 0 0 0 0 0 0 0 0 0 0 0 0 0 0 0
0 0 0 0 0 0 0 0 0 0 0 0 0 0 0 0 0 0 0 0 0 0 0 0 0 0 0 0 0 0 0 0 0 0 0 0 0 0 0 0 0 0 0 0 0 0 0
0 0 0 0 0 0 0 0 0 0 0 0 0 0 0 0 0 0 0 0 0 0 0 0 0 0 0 0 0 0 0 0 0 0 0 0 0 0 0 0 0 0 0 0 0 0 0
0 0 0 0 0 0 0 0 0 0 0 0 0 0 0 0 0 0 0 0 0 0 0 0 0 0 0 0 0 0 0 0 0 0 0 0 0 0 0 0 0 0 0 0 0 0 0
0 0 0 0 0 0 0 0 0 0 0 0 0 0 0 0 0 0 0 0 0 0 0 0 0 0 0 0 0 0 0 0 0 0 0 0 0 0 0 0 0 0 0 0 0 0 0
0 0 0 0 0 0 0 0 0 0 0 0 0 0 0 0 0 0 0 0 0 0 0 0 0 0 0 0 0 0 0 0 0 0 0 0 0 0 0 0 0 0 0 0 0 0 0
0 0 0 0 0 0 0 0 0 0 0 0 0 0 0 0 0 0 0 0 0 0 0 0 0 0 0 0 0 0 0 0 0 0 0 0 0 0 0 0 0 0 0 0 0 0 0
0 0 0 0 0 0 0 0 0 0 0 0 0 0 0 0 0 0 0 0 0 0 0 0 0 0 0 0 0 0 0 0 0 0 0 0 0 0 0 0 0 0 0 0 0 0 0
0 0 0 0 0 0 0 0 0 0 0 0 0 0 0 0 0 0 0 0 0 0 0 0 0 0 0 0 0 0 0 0 0 0 0 0 0 0 0 0 0 0 0 0 0 0 0
0 0 0 0 0 0 0 0 0 0 0 0 0 0 0 0 0 0 0 0 0 0 0 0 0 0 0 0 0 0 0 0 0 0 0 0 0 0 0 0 0 0 0 0 -67 -63 -72
0 0 0 0 0 0 0 0 0 0 0 0 0 0 0 0 0 0 0 0 0 0 0 0 0 0 0 0 0 0 0 0 0 0 0 0 0 0 0 0 0 0 -23 -55 -54 -84 -135
0 0 0 0 0 0 0 0 0 0 0 0 0 0 0 0 0 0 0 0 0 0 0 0 0 0 0 0 0 0 0 0 0 0 0 0 0 0 0 0 0 -17 -74 -57 -19 -41 -98
0 0 0 0 0 0 0 0 0 0 0 0 0 0 0 0 0 0 0 0 0 0 0 0 0 0 0 0 0 0 0 0 0 0 0 0 0 0 0 0 0 0 -113 -104 -84 -40 -67
0 0 0 0 0 0 0 0 0 0 0 0 0 0 0 0 0 0 0 0 0 0 0 0 0 0 0 0 0 0 0 0 0 0 0 0 0 0 0 0 0 -66 -137 -151 -130 -5 -168
0 0 0 0 0 0 0 0 0 0 0 0 0 0 0 0 0 0 0 0 0 0 0 0 0 0 0 0 0 0 0 0 0 0 0 0 0 0 0 0 0 -156 -136 -55 -4 -12 -208
0 0 0 0 0 0 0 0 0 0 0 0 0 0 0 0 0 0 0 0 0 0 0 0 0 0 0 0 0 0 0 0 0 0 0 0 0 0 0 0 0 -151 -45 -9 -62 -212 -204
0 0 0 0 0 0 0 0 0 0 0 0 0 0 0 0 0 0 0 0 0 0 0 0 0 0 0 0 0 0 0 0 0 0 0 0 0 -106 0 -15 -14 -14 0 0 0 0 -6
Wind_Speed
16 16 17 17 17 17 17 17 16 17 18 19 20 20 19 18 17 17 17 17 19 18 16 13 11 11 3 2 3 3 10 12 9 3 6 6 12 5 3 2 2 3 2 4 4 8 6
17 16 16 16 17 19 17 17 17 16 16 17 19 20 21 20 19 19 17 16 17 16 15 12 9 8 2 3 2 7 10 10 9 3 4 7 9 5 2 2 4 2 5 8 6 10 6
16 16 16 15 17 20 21 18 19 18 18 18 18 19 20 22 22 22 20 19 17 14 10 8 5 3 1 2 4 6 7 3 9 5 3 5 4 4 4 2 1 2 4 6 12 9 6
16 16 15 16 16 17 18 19 21 20 20 18 17 18 19 20 21 21 22 20 16 7 3 3 3 2 5 2 4 2 3 5 3 4 2 3 5 3 3 2 1 3 2 1 3 8 5
15 18 17 16 16 16 18 18 19 19 21 20 19 19 20 20 21 21 19 19 9 6 9 8 2 2 0 1 3 4 6 3 5 3 2 4 4 1 4 3 3 1 4 7 0 9 3
14 14 15 16 17 16 17 18 19 20 21 20 20 20 20 21 20 19 21 7 2 2 5 4 2 3 1 2 3 4 4 3 2 6 6 3 1 3 4 6 7 4 5 4 5 2 7
14 15 15 15 15 16 16 17 18 20 22 23 21 22 22 22 22 19 8 3 2 2 0 1 3 3 4 7 4 3 4 7 2 2 5 2 6 10 8 5 7 6 3 2 1 2 2
14 15 16 16 16 18 17 18 19 22 20 22 22 22 23 23 22 17 1 3 3 3 4 2 4 5 7 3 0 4 6 5 2 6 5 6 10 3 2 5 7 6 4 2 4 1 2
15 15 16 16 16 18 16 17 18 21 20 21 23 21 22 23 24 3 3 5 4 5 2 3 3 3 1 5 1 4 8 4 4 4 4 7 2 7 4 3 6 4 5 3 2 2 2
16 16 17 17 17 16 14 15 15 18 20 22 22 20 20 25 3 4 2 2 5 4 2 1 3 3 4 2 1 1 2 3 3 5 5 5 3 5 6 4 3 8 7 5 3 8 6
17 17 17 18 18 18 17 17 16 17 20 23 20 18 16 8 7 3 3 7 3 3 3 2 3 3 3 2 1 3 1 2 6 6 4 3 5 7 5 4 8 4 6 2 2 1 9
17 17 18 18 19 18 17 17 17 17 20 22 21 18 16 2 2 5 6 5 3 3 3 2 2 4 5 2 3 3 2 5 2 5 1 2 1 3 6 4 11 3 6 4 3 3 8
16 16 17 17 18 17 16 16 17 17 21 22 22 20 9 2 1 3 6 2 2 1 2 3 2 2 5 4 4 3 4 3 1 4 3 1 3 2 3 4 4 6 7 6 7 7 9
16 15 16 16 16 16 16 16 16 17 20 22 24 15 4 3 4 6 1 1 1 1 2 2 1 5 4 4 5 6 4 4 6 2 3 3 6 6 5 7 5 8 10 6 11 10 10
16 15 15 14 15 15 15 16 16 17 21 22 20 2 0 3 4 3 1 1 2 1 2 1 1 4 3 3 3 3 6 4 4 4 2 2 1 2 1 1 4 6 8 4 2 1 5
16 15 14 13 13 13 13 15 15 18 21 21 4 3 3 4 5 2 1 2 2 2 3 1 3 2 3 5 2 3 3 5 5 4 5 3 2 2 1 2 4 3 7 7 3 7 7
16 15 14 12 12 13 13 13 12 16 22 15 3 2 5 2 4 1 2 2 2 5 2 5 2 4 4 3 4 3 4 3 6 4 2 1 3 4 3 3 3 3 4 1 3 4 8
15 14 13 12 12 12 12 12 10 13 21 6 3 2 2 2 1 2 2 2 3 3 5 4 4 6 4 5 5 4 4 3 10 3 2 3 2 2 3 2 3 1 4 2 7 8 1
15 14 13 11 12 11 11 10 7 9 10 3 3 3 1 2 1 2 1 4 5 2 6 3 4 4 4 3 3 2 2 3 10 4 3 1 1 4 4 5 4 3 3 3 2 2 7
13 13 13 11 11 11 10 9 5 6 7 0 0 0 1 3 2 1 4 2 6 5 5 6 4 2 3 3 6 4 3 3 6 7 8 2 3 3 5 4 4 2 0 3 3 4 3
13 13 12 11 10 10 10 8 2 4 4 2 2 2 2 1 2 0 1 2 6 4 4 4 4 5 2 3 2 3 2 1 4 9 4 4 2 3 1 2 3 5 7 6 5 2 5
12 12 12 12 10 10 9 8 2 1 2 1 1 1 2 0 3 2 1 3 6 4 1 3 5 3 3 3 1 3 1 3 4 6 3 4 2 1 2 2 4 7 9 8 3 2 5
13 13 12 12 11 10 9 7 5 4 3 1 1 1 2 2 2 3 3 3 7 9 6 4 12 6 6 5 4 5 5 5 3 3 4 3 1 1 3 4 6 8 4 4 2 2 1
13 12 11 11 11 10 9 8 8 7 5 1 2 1 2 2 3 3 5 3 10 3 9 5 4 4 4 9 9 6 8 7 6 6 3 3 3 0 3 4 9 5 5 5 3 3 1
13 12 12 12 12 10 9 9 10 10 9 1 2 2 3 3 2 3 9 9 11 10 8 6 3 4 7 4 3 4 3 3 4 6 4 2 2 3 5 8 4 6 0 1 1 3 5
13 12 12 12 12 11 10 10 12 10 10 2 2 2 2 1 4 1 7 12 11 6 4 4 3 4 2 3 2 3 3 2 4 5 4 5 2 5 4 7 7 4 4 2 2 5 7
13 13 13 13 13 13 12 12 13 11 11 3 2 4 2 2 1 3 3 7 5 5 4 4 4 3 2 2 2 2 3 0 3 2 3 2 3 10 9 7 3 6 8 2 7 4 10
14 14 14 14 14 14 13 15 15 14 12 5 1 5 2 1 1 3 3 5 4 4 6 6 5 2 2 3 2 3 2 3 2 2 2 3 3 4 6 9 13 10 2 4 5 7 8
15 14 14 15 14 14 14 18 15 11 11 6 1 2 2 2 2 2 3 3 3 4 6 3 2 4 3 5 1 3 3 3 4 2 4 4 4 2 5 3 5 6 5 7 8 7 6
Wind_Direction
356 1 7 4 2 360 352 349 346 343 343 342 340 338 335 332 328 324 322 320 318 317 315 310 312 320 316 244 253 79 120 133 156 112 143 134 156 154 152 188 232 284 333 209 247 170 180
355 355 357 359 359 358 353 349 348 343 339 338 336 333 330 328 327 325 321 317 314 311 306 298 304 310 274 250 57 146 126 123 157 141 166 164 173 178 121 187 221 226 266 247 225 206 195
354 349 349 351 354 355 355 350 348 344 339 335 333 331 329 328 328 326 325 320 313 306 294 279 284 275 235 242 82 138 150 149 160 175 183 201 184 201 173 195 280 251 250 237 241 211 205
353 344 341 345 347 351 351 349 348 343 340 332 329 327 324 322 324 326 326 321 313 317 125 195 223 247 251 171 143 188 186 127 152 202 250 201 199 149 251 316 167 219 227 169 68 188 196
349 347 340 336 343 343 345 345 345 341 338 333 328 327 325 324 325 326 324 323 312 92 122 147 160 309 212 159 222 136 174 170 156 178 271 115 190 150 164 180 180 3 153 148 188 187 136
332 334 335 331 329 336 338 343 343 342 339 331 328 326 324 324 326 328 325 305 106 106 138 183 211 252 277 59 326 120 163 185 132 124 110 152 103 190 146 187 203 156 147 131 184 84 195
324 322 320 322 323 324 326 337 334 337 337 333 329 326 326 327 326 330 336 169 250 152 329 253 287 266 286 312 257 166 155 150 129 130 166 102 198 200 195 137 115 102 104 111 231 62 250
322 320 319 318 324 325 324 328 336 336 334 331 328 328 326 326 326 326 232 92 113 352 308 245 234 256 258 277 168 95 159 152 168 160 140 158 220 157 147 152 145 144 145 202 262 319 222
316 315 314 313 311 325 323 320 328 334 331 330 330 325 324 325 322 308 347 124 27 165 293 302 222 201 222 179 105 150 173 141 137 140 173 189 107 151 159 157 180 154 182 169 316 355 85
315 316 314 315 314 313 312 315 316 324 330 331 328 324 329 329 273 338 242 74 324 204 314 57 176 130 139 134 184 193 182 148 110 153 150 206 134 155 161 174 226 231 196 169 175 248 247
316 319 317 317 320 318 317 311 315 320 329 327 324 323 327 334 318 233 62 342 104 189 118 127 127 118 129 177 70 110 278 96 164 142 200 160 177 190 198 195 186 243 168 159 153 156 221
313 314 316 318 320 320 320 317 313 319 324 324 321 324 330 150 222 260 330 325 201 246 111 122 86 152 150 65 79 113 122 66 88 121 127 211 281 218 199 174 194 118 143 77 87 170 224
309 310 314 316 319 322 321 320 316 318 321 323 321 321 305 196 51 340 315 143 229 323 336 50 76 109 95 33 91 30 129 87 95 158 172 193 203 255 194 175 133 187 189 199 207 205 231
307 310 312 316 320 324 324 320 320 319 322 323 322 323 163 234 296 336 196 188 111 60 18 53 116 84 83 1 59 29 98 120 62 43 138 179 189 197 164 220 208 188 214 230 220 214 217
306 307 308 315 319 325 327 325 323 323 325 326 319 24 246 303 233 249 208 137 66 335 332 3 118 76 75 64 36 90 52 41 20 2 292 162 240 288 234 0 203 154 209 262 232 121 248
304 304 304 313 317 322 326 327 327 330 328 333 326 5 8 2 148 250 167 115 102 303 339 57 89 355 108 16 114 75 57 16 346 359 269 151 247 31 354 172 69 264 139 184 206 215 225
299 300 301 306 312 318 324 328 335 338 330 332 303 80 9 356 269 65 131 75 120 42 24 14 96 97 77 60 41 69 29 79 352 330 15 113 272 125 214 46 38 154 183 83 251 282 244
298 298 297 300 309 313 320 326 347 349 337 37 323 128 41 284 243 344 128 114 355 33 35 65 78 63 53 39 54 87 102 16 352 293 50 38 310 211 73 341 248 47 61 323 244 192 240
297 298 297 300 304 307 315 323 356 3 22 325 16 297 75 267 240 122 156 108 57 81 43 53 87 50 58 76 100 70 78 34 9 37 42 16 82 200 159 152 139 87 77 80 35 296 202
297 299 298 297 300 303 311 319 351 4 1 12 278 185 358 67 24 193 149 125 120 66 80 65 84 109 118 92 43 116 97 48 358 24 41 197 87 323 292 37 358 178 14 48 345 246 142
298 300 297 294 293 295 299 305 323 358 8 278 7 89 40 150 96 278 288 131 131 119 76 47 95 59 102 114 107 91 59 55 66 9 44 12 98 312 308 311 314 293 295 308 305 302 268
296 294 292 292 294 293 292 294 226 82 116 252 289 183 144 102 298 230 304 154 141 121 62 85 114 109 121 140 82 137 110 33 35 10 54 5 104 326 274 329 295 277 280 281 238 216 272
293 291 291 293 291 286 278 275 207 163 169 217 106 63 250 100 167 195 189 159 142 139 54 110 135 123 105 98 90 65 66 80 58 9 43 31 93 306 255 334 300 246 267 267 190 124 292
292 289 288 287 286 284 274 262 195 185 187 210 150 149 192 178 243 203 178 136 140 112 130 131 112 100 99 112 110 102 64 75 91 58 356 126 112 227 275 290 245 88 57 53 216 110 58
291 291 290 289 285 282 274 261 192 194 177 205 153 190 190 183 233 193 164 125 108 97 101 110 65 65 136 100 131 137 122 154 70 47 21 255 157 186 244 229 306 211 107 13 325 201 332
289 285 285 284 283 277 263 247 200 193 174 184 205 145 268 168 198 111 140 151 134 121 113 95 95 124 116 81 106 162 168 100 161 143 67 109 99 239 177 237 234 79 89 21 205 232 12
288 286 284 281 278 275 264 222 193 187 179 195 196 176 215 221 131 181 147 152 123 110 113 144 158 137 13 92 95 154 144 20 199 187 151 143 177 223 215 240 247 14 327 222 202 62 331
285 283 281 276 273 272 262 200 183 193 177 177 122 183 248 189 109 206 180 138 133 157 154 140 158 156 120 102 149 151 182 157 198 141 169 218 219 208 217 233 237 3 224 268 2 321 335
278 275 274 271 268 268 267 188 178 181 177 169 142 165 184 241 49 321 15 6 319 170 131 148 31 133 128 104 159 138 156 174 176 214 191 224 264 301 254 18 36 24 38 353 329 310 315